Find Starlink 38028

NORAD ID: 100485 Int'l Des: 2026-196 Owner: SPXS Country: US Constellation: starlink operational

当前视图

正在加载3D地球...

About Starlink 38028

Starlink 38028 (NORAD 100485) is a starlink constellation satellite launched Aug 25, 2026 by SPXS of US. with a mass of 575.00 kg.

即将过境

Passes for default location (London). Set your location on the main map for personalized predictions.

高度历史

Loading altitude history...

两行轨道根数

1 A0485U 26196N 26256.51879004 -.00367891 00000-0 -21938-2 0 9997
2 A0485 53.1569 276.5508 0002347 77.6176 282.5108 15.78183714 4253
Epoch: Sep 13, 2026 • Age: 188 hours

当前状态

高度 354.6 km
远地点 / 近地点 N/A
速度 7.70 km/s
星下点 50.04°N, 127.92°W
发射日期 Aug 25, 2026
运行时间 26 days
类型 internet

技术详情

分类 Payload
质量 575.00 kg
干质量 530.00 kg
长度 0.30 m
跨度 29.00 m
形状 ? Box + pan
制造商 SPXS
平台类型 Starlink V2MO
阶段状态 In Orbit
所有者/国家 SPXS/US

Most Searched